Regional Weather Roundup
Issued by NWS Goodland, KS

Home | Current Version | Previous Version | Graphics & Text | Print | Product List | Glossary On
Versions: 1 2 3 4 5 6 7 8 9 10 11 12 13 14 15 16 17 18 19 20 21 22 23 24 25 26 27 28 29 30 31 32 33 34 35 36 37 38 39 40 41 42 43 44 45 46 47 48 49 50
000
ASUS43 KGLD 030959
RWRGLD

GOODLAND FORECAST AREA HOURLY WEATHER ROUNDUP
NATIONAL WEATHER SERVICE GOODLAND KS
400 AM MDT MON AUG 03 2015

...OFFICIAL OBSERVATIONS...

CITY           SKY/WX    TMP DP  RH WIND       PRES   REMARKS
GOODLAND KS    PTCLDY    65  58  78 W7        30.00R
HILL CITY KS   CLEAR     66  62  87 N5        29.94R
IMPERIAL NEB   PTCLDY    63  54  72 NE9       29.98S
MCCOOK NEB     PTCLDY    61  58  90 N5        29.97R
AKRON CO       MOCLDY    67  52  58 S10       30.05S
BURLINGTON CO  MOCLDY    65  60  84 W8        30.04R
LIMON CO       CLOUDY    58  51  78 CALM      30.12S
$$

...UNOFFICIAL OBSERVATIONS...

CITY           SKY/WX    TMP DP  RH WIND       PRES   REMARKS
COLBY KS       CLEAR     63  59  88 W6        29.99R
NORTON KS      CLEAR     61  54  77 CALM      29.95
SHARON SPRINGS   N/A     65  61  88 CALM        N/A
KIT CARSON CO    N/A     64  55  73 MISG        N/A
$$



USA.gov is the U.S. government's official web portal to all federal, state and local government web resources and services.